星链-2635 (STARLINK-2635 )

导读

STARLINK-2635是美国SpaceX公司星链(Starlink)项目的卫星,于2021年5月4日发射升空,属于星链互联网卫星星座的一部分,主要为全球提供低延迟、高速率的宽带互联网服务,尤其服务偏远地区和网络基础设施薄弱区域,推动全球网络覆盖与互联。

基本信息
目录编号:
48355
目录名称:
STARLINK-2635
国际标识:
2021-038C
轨道中心:
EARTH
卫星名称:
星链-2635
卫星全名:
星链-2635 (STARLINK-2635 )
卫星状态:
在轨 (已飞行1949 天)
发射日期:
2021-05-04 UTC
国别 :
美国 (US)
星等 :
--
轨道信息
数据来源 国际轨道数据 AOE轨道数据
星历时间 2026-09-04T14:14:36+0800
8小时前
查看轨道信息
2026-09-03T08:00:00+0800
1天前
查看轨道信息
半长轴 6848.864km 6848.898km
偏心率 0.0001075 0.0000819
轨道倾角 53.159° 53.159°
近地点辐角 90.624° 74.854°
升交点赤经 247.101° 252.970°
平近点角 269.488° 172.808°
近地点 469.99km 470.2km
远地点 471.464km 471.322km
周期 94.013分钟 94.014分钟
每日圈数 15.317044 15.316932
详细信息
固有亮度:
5
最大亮度:
2.5
卫星平台:
Starlink V1.0
覆盖范围:
全球
运营商:
太空探索技术公司
运营商所在国:
美国
制造商(研发单位):
太空探索技术公司
制造商所在国:
美国
使用方式:
暂无
卫星简介
星链(Starlink)计划是由太空探索技术公司(SpaceX)提出的一个巨型低轨卫星互联网星座项目,计划在2019年至2024年间在太空搭建由约1.2万颗卫星组成的“星链”网络,其中1584颗将部署在地球上空550千米处的近地轨道,并从2020年开始工作。该卫星仍在工作。
2D轨道图
3D轨道图
轨道高度分析图
轨道倾角分析图
轨道综合分析图
查看轨道综合分析图